Regional Weather Roundup
Issued by NWS

Home | Current Version | Previous Version | Text Only | Print | Product List | Glossary On
Versions: 1 2 3 4 5 6 7 8 9 10 11 12 13 14 15 16 17 18 19 20 21 22 23 24 25 26 27 28 29 30 31 32 33 34 35 36 37 38 39 40 41 42 43 44 45 46 47 48 49 50
393
ASUS44 KFWD 111515
RWRTX
NORTH TEXAS HOURLY WEATHER ROUNDUP
NATIONAL WEATHER SERVICE FORT WORTH TX
900 AM CST THU FEB 11 2016

NOTE: "FAIR" INDICATES FEW OR NO CLOUDS BELOW 12,000 FEET WITH NO
SIGNIFICANT WEATHER AND/OR OBSTRUCTIONS TO VISIBILITY.

TXZ118-119-111600-
DALLAS/FORT WORTH METROPLEX

CITY           SKY/WX    TMP DP  RH WIND       PRES   REMARKS
DFW AIRPORT    MOSUNNY   56  34  43 S3        30.10R
DALLAS LOVE    MOSUNNY   54  35  48 CALM      30.11R
FTW MEACHAM    SUNNY     60  31  33 CALM      30.11R
DAL-EXECUTIVE  SUNNY     59  32  36 CALM      30.10R
FTW-ALLIANCE   MOSUNNY   58  31  35 CALM      30.10S
FTW-NAS-JRB    MOSUNNY   60  29  30 N5        30.12R
ARLINGTON      SUNNY     54  35  48 CALM      30.12R
GRAND PRAIRIE  SUNNY     52  36  54 CALM      30.13R
ADDISON        SUNNY     55  34  44 SW5       30.10R
MESQUITE       SUNNY     50  36  57 S6        30.12R
LANCASTER      SUNNY     49  34  56 CALM      30.12S
$$

TXZ091>094-102>105-117-120-121-131>134-111600-
NORTH CENTRAL TEXAS

CITY           SKY/WX    TMP DP  RH WIND       PRES   REMARKS
SHRMAN/DENISON SUNNY     52  32  46 W3        30.11R
GAINESVILLE    SUNNY     54  32  42 N8        30.12S
BOWIE          SUNNY     53  31  43 N6        30.11R
BRIDGEPORT     SUNNY     55  32  41 NW5       30.13R
DECATUR        SUNNY     55  27  34 NW9       30.11R
DENTON         SUNNY     53  32  44 W5        30.11R
MCKINNEY       SUNNY     53  36  52 CALM      30.10R
GREENVILLE     SUNNY     54  34  47 SW6       30.10R
ROCKWALL       SUNNY     52  36  54 SW7       30.10R
TERRELL        SUNNY     51  36  56 S5        30.12R
WAXAHACHIE     SUNNY     56  35  44 CALM      30.13R
CLEBURNE       MOSUNNY   59  32  36 CALM      30.13R
GRANBURY       MOSUNNY   59  32  36 CALM      30.12R
$$

TXZ083>090-098>101-113>116-127>130-139>142-154-155-111600-
WESTERN NORTH TEXAS

CITY           SKY/WX    TMP DP  RH WIND       PRES   REMARKS
WICHITA FALLS  MOSUNNY   48  33  56 NE13      30.14R
WF-KICKAPOO    SUNNY     49  32  51 N10G20    30.15R
VERNON         MOSUNNY   49  28  43 N15G21    30.17R
ABILENE        SUNNY     58  30  34 N6        30.13R
ABILENE-DYESS  SUNNY     53  29  39 NE5       30.12R
BRECKENRIDGE   MOSUNNY   58  28  32 N3        30.12R
GRAHAM         MOSUNNY   53  32  44 CALM      30.11R
MINERAL WELLS  SUNNY     55  31  39 NW3       30.10R
STEPHENVILLE   SUNNY     62  28  27 SW12      30.13S
COMANCHE       SUNNY     62  30  30 W9        30.11R
BROWNWOOD      SUNNY     46  30  53 CALM      30.14S
COLEMAN        SUNNY     60  28  30 SW9G18    30.13S
$$

TXZ143>147-156>162-174-175-111600-
CENTRAL TEXAS

CITY           SKY/WX    TMP DP  RH WIND       PRES   REMARKS
WACO           SUNNY     53  34  48 S8        30.12R
WACO-MCGREGOR  SUNNY     56  35  45 S9        30.12R
HILLSBORO      SUNNY     55  33  44 CALM      30.13R
CORSICANA      SUNNY     57  36  45 W3        30.15R
MEXIA          SUNNY     57  36  44 SW15G21   30.13R
HEARNE         SUNNY     54  39  56 CALM      30.18R
CAMERON        SUNNY     58  35  41 SW9       30.15R
TEMPLE         SUNNY     54  35  48 S3        30.15R
KILLEEN        SUNNY     61  30  30 W13       30.11S
KILLEEN-SKYLRK SUNNY     60  32  34 W6        30.14R
FORT HOOD      SUNNY     60  31  32 SW2       30.11R
GATESVILLE     SUNNY     59  32  36 CALM      30.14S
HAMILTON       SUNNY     64  32  30 SW15G21   30.12S
LAMPASAS       SUNNY     63  33  32 SW9       30.12S
$$

TXZ095>097-106>112-122>126-135>138-148>153-164>167-111600-
EAST TEXAS

CITY           SKY/WX    TMP DP  RH WIND       PRES   REMARKS
PARIS          SUNNY     50  34  53 W9        30.08R
SULPHUR SPRNGS SUNNY     55  36  48 SW13      30.11R
MOUNT PLEASANT SUNNY     59  35  41 SW10      30.10R
GILMER           N/A    N/A N/A N/A MISG        N/A
MINEOLA        SUNNY     57  36  44 SW7       30.12R
TYLER          SUNNY     58  37  45 SW9       30.13R
LONGVIEW       SUNNY     59  38  45 SW7       30.11R
MARSHALL       SUNNY     57  37  47 SW9G16    30.13S
ATHENS         SUNNY     54  37  54 S3        30.13R
PALESTINE      SUNNY     55  40  57 S5        30.16R
JACKSONVILLE   SUNNY     57  38  50 SW10G18   30.15R
HENDERSON      SUNNY     58  38  46 SW8       30.14R
CENTER         FAIR      60  38  42 SW10G21   30.13R
NACOGDOCHES    SUNNY     57  37  47 SW9G17    30.15R
LUFKIN         SUNNY     56  40  55 SW10      30.17R
$$

SUPPLEMENTAL OBSERVATIONS (CENTRAL)

CITY           SKY/WX    TMP DP  RH WIND       PRES   REMARKS
LAKE TEXOMA      N/A     52  34  50 NW7         N/A
CADDO GRASSLND   N/A     57  34  41 N3          N/A
PAT MAYSE LAKE   N/A     50  41  71 SW3         N/A
GREENVILLE       N/A     55  36  47 W7          N/A
CEDAR HILL       N/A     61  32  33 W1          N/A
ATHENS           N/A     57  37  47 SW5         N/A
LAKE LIMESTONE   N/A     61  37  41 SW8         N/A
MCGREGOR         N/A     57  36  44 SW5         N/A
TEMPLE           N/A     61  36  39 S2          N/A
$$

SUPPLEMENTAL OBSERVATIONS (WEST)

CITY           SKY/WX    TMP DP  RH WIND       PRES   REMARKS
MILLERS CREEK    N/A     48  28  46 N6          N/A
POSSUM KINGDOM   N/A     57  28  33 W7          N/A
LBJ GRASSLAND    N/A     57  30  35 NW6         N/A
GRANBURY         N/A     59  32  36 NW5         N/A
COMANCHE         N/A     63  28  27 W10G24      N/A
HAMBY            N/A     57  32  38 VRB2        N/A
$$

SUPPLEMENTAL OBSERVATIONS (EAST)

CITY           SKY/WX    TMP DP  RH WIND       PRES   REMARKS
CLARKSVILLE      N/A     57  36  44 W3          N/A
TEXARKANA        N/A     61  37  41 W3          N/A
LINDEN           N/A     61  37  41 W6          N/A
GILMER           N/A     61  37  41 SW10        N/A
HENDERSON        N/A     61  39  44 SW13        N/A
LUFKIN           N/A     61  39  44 MISG        N/A
N SABINE NF      N/A     57  39  51 MISG        N/A
S SABINE NF      N/A     57  43  58 S5          N/A
$$

SUPPLEMENTAL OBSERVATIONS ARE A COLLECTION OF AUTOMATED INSTRUMENTS
THAT ARE MAINTAINED BY A VARIETY OF FEDERAL AND STATE AGENCIES.
CERTAIN ELEMENTS...SUCH AS HUMIDITY VALUES AND SUSTAINED WIND
SPEEDS...MAY BE APPROXIMATED.





USA.gov is the U.S. government's official web portal to all federal, state and local government web resources and services.